Weather History for Seldovia, AK

Change the Weather History Date:

Wednesday, January 9, 2013

  Actual Average (PAHO) Record (PAHO)
Temperature  
Mean Temperature 28 °F -  
Max Temperature 34 °F 28 °F 46 °F (1942)
Min Temperature 21 °F 16 °F -10 °F (1975)
Degree Days  
Heating Degree Days 38    
Moisture  
Dew Point 23 °F    
Average Humidity 89    
Maximum Humidity 96    
Minimum Humidity 73    
Precipitation  
Precipitation 0.01 in - - ()
Sea Level Pressure  
Sea Level Pressure 29.99 in    
Wind  
Wind Speed 1 mph (SSE)    
Max Wind Speed 8 mph    
Max Gust Speed -    
Visibility 9 miles    
Events Snow    
Averages and records for this station are not official NWS values.
T = Trace of Precipitation, MM = Missing Value Source: NWS Daily Summary

Daily Weather History Graph

Daily Weather History Graph

Search for Another Location

Airport:

Trip Planner

Search our weather history database for the weather conditions in past years. The results will help you decide how hot, cold, wet, or windy it might be!

Date:

Astronomy

Jan. 09, 2013 Rise Set
Actual Time 9:57 AM AKST 4:31 PM AKST
Civil Twilight 9:04 AM AKST 5:24 PM AKST
Nautical Twilight 8:10 AM AKST 6:18 PM AKST
Astronomical Twilight 7:20 AM AKST 7:08 PM AKST
Moon 7:49 AM AKST (1/9) 2:42 PM AKST (1/9)
Length of Visible Light 8h 20m
Length of Day
6h 34m
Waning Crescent, 5% of the Moon is Illuminated
Jan 9
Waning Crescent
Jan 11
New
Jan 18
First Quarter
Jan 26
Full
Feb 3
Last Quarter

Hourly Weather History & Observations

Time (AKST) Temp. Windchill Dew Point Humidity Pressure Visibility Wind Dir Wind Speed Gust Speed Precip Events Conditions
12:00 AM 26.6 °F - 21.2 °F 80% 30.02 in 10.0 mi Calm Calm - N/A   Mostly Cloudy
12:15 AM 24.8 °F - 21.2 °F 86% 30.02 in 10.0 mi Calm Calm - N/A   Scattered Clouds
12:53 AM 24.1 °F - 21.9 °F 91% 30.03 in 10.0 mi Calm Calm - N/A   Clear
1:53 AM 23.0 °F - 19.9 °F 88% 30.04 in 10.0 mi Calm Calm - N/A   Clear
3:53 AM 21.9 °F - 19.0 °F 89% 30.06 in 10.0 mi Calm Calm - N/A   Clear
4:53 AM 21.9 °F - 19.0 °F 89% 30.06 in 10.0 mi Calm Calm - N/A   Clear
5:53 AM 21.0 °F - 19.0 °F 92% 30.06 in 10.0 mi Calm Calm - N/A   Clear
6:53 AM 21.0 °F - 18.0 °F 88% 30.06 in 10.0 mi Calm Calm - N/A   Clear
7:53 AM 21.0 °F - 18.0 °F 88% 30.06 in 10.0 mi Calm Calm - N/A   Clear
8:53 AM 21.0 °F - 18.0 °F 88% 30.05 in 10.0 mi Calm Calm - N/A   Scattered Clouds
9:53 AM 21.0 °F - 18.0 °F 88% 30.04 in 10.0 mi Calm Calm - N/A   Clear
10:53 AM 21.0 °F - 18.0 °F 88% 30.05 in 10.0 mi Calm Calm - N/A   Clear
11:53 AM 21.9 °F 17.2 °F 19.0 °F 89% 30.04 in 10.0 mi SSE 3.5 mph - N/A   Scattered Clouds
12:53 PM 24.1 °F - 21.9 °F 91% 30.04 in 10.0 mi Calm Calm - N/A   Clear
1:53 PM 26.1 °F - 23.0 °F 88% 30.01 in 10.0 mi Calm Calm - N/A   Overcast
2:31 PM 26.6 °F - 24.8 °F 93% 29.98 in 10.0 mi Calm Calm - N/A   Overcast
2:53 PM 27.0 °F - 25.0 °F 92% 29.97 in 10.0 mi Calm Calm - N/A   Overcast
3:36 PM 28.4 °F - 26.6 °F 93% 29.96 in 10.0 mi Calm Calm - N/A   Overcast
3:53 PM 28.9 °F 25.2 °F 26.1 °F 89% 29.96 in 10.0 mi South 3.5 mph - N/A   Overcast
4:53 PM 32.0 °F 24.8 °F 28.9 °F 88% 29.94 in 10.0 mi South 8.1 mph - N/A   Overcast
5:53 PM 34.0 °F 28.8 °F 26.1 °F 73% 29.92 in 10.0 mi SE 5.8 mph - N/A   Overcast
6:53 PM 33.1 °F 27.7 °F 28.0 °F 82% 29.90 in 10.0 mi South 5.8 mph - N/A   Overcast
7:53 PM 32.0 °F - 28.9 °F 88% 29.88 in 10.0 mi Calm Calm - N/A   Overcast
8:53 PM 32.0 °F - 30.0 °F 92% 29.88 in 7.0 mi Calm Calm - 0.00 in Snow Light Snow
9:53 PM 32.0 °F - 30.0 °F 92% 29.87 in 8.0 mi Calm Calm - 0.00 in Snow Light Snow
10:53 PM 33.1 °F - 30.9 °F 92% 29.86 in 6.0 mi Calm Calm - 0.00 in Snow Light Snow
11:53 PM 33.1 °F - 32.0 °F 96% 29.87 in 3.0 mi Calm Calm - 0.01 in Snow Light Snow